Temp
8 8 8 8 9 9 10 11 11 11 11 11 11 11 11 10 10 10 10 10 10 9 9 9 8 8 8 8 8 8 8 8 8 8 8 8 8 9 9 9 9 9 9 8 8 8 8 8 8
7 8 7 8 8 9 10 11 11 11 11 12 11 11 11 10 10 10 10 10 9 9 8 8 8 8 8 8 8 8 8 8 8 8 8 8 9 9 9 9 9 9 9 9 9 9 9 9 9
7 7 7 7 8 9 10 10 11 11 11 11 11 11 11 10 10 10 10 9 9 9 8 8 8 8 8 8 8 8 8 9 9 9 9 8 8 8 8 8 8 8 9 9 9 9 9 9 9
7 6 6 7 8 9 10 11 11 11 11 11 11 11 11 11 10 10 10 9 9 9 8 8 8 8 8 8 9 9 9 9 9 9 8 8 8 8 8 8 9 9 9 9 9 9 9 9 9
7 6 6 7 8 9 10 9 10 11 11 10 10 11 11 10 10 10 9 9 9 8 8 8 8 9 8 9 9 9 9 9 9 8 8 8 8 8 8 8 8 9 9 9 9 9 9 9 9
6 6 5 6 8 9 9 9 9 10 10 10 10 10 10 10 10 10 9 9 9 8 9 9 9 9 9 9 9 9 9 9 8 8 8 8 8 8 8 9 9 9 9 9 9 9 9 9 9
5 6 6 7 9 8 9 9 9 10 10 10 10 10 10 10 10 9 9 9 9 9 9 9 9 9 9 9 9 9 9 8 8 8 8 8 8 8 9 9 9 9 9 9 9 9 9 9 9
4 5 6 7 9 8 8 9 9 9 10 10 10 10 10 10 10 9 9 9 9 9 9 9 9 9 9 9 9 9 8 8 8 8 8 8 8 8 8 8 9 9 9 9 9 9 9 9 9
3 4 5 7 8 8 8 8 8 9 9 10 10 10 10 10 10 9 9 9 9 9 9 8 8 8 8 9 8 8 8 8 8 8 8 8 8 8 9 9 9 9 9 9 9 9 9 9 9
3 4 5 7 8 8 8 8 9 8 8 9 9 9 9 9 9 9 9 9 9 9 8 8 8 8 8 8 8 8 8 8 8 8 8 8 8 8 9 9 9 9 9 9 9 9 9 9 9
2 3 5 7 7 8 8 8 9 9 9 9 9 9 9 9 9 9 9 8 8 8 8 8 8 8 8 8 8 8 8 8 8 8 8 8 8 9 9 9 9 9 9 9 9 9 9 9 9
1 3 4 6 7 8 8 8 8 8 9 9 8 8 8 8 8 9 8 8 8 8 8 8 8 7 8 8 8 8 8 8 8 8 8 8 8 8 8 9 9 9 9 9 9 9 9 9 9
1 2 4 6 7 8 8 8 8 8 8 9 8 8 8 8 8 8 8 8 8 8 8 7 7 7 7 8 8 8 8 8 8 8 9 8 8 8 8 8 9 9 9 9 9 9 8 8 8
1 3 4 5 7 7 7 7 7 8 8 8 8 7 7 7 7 7 8 7 7 7 7 7 7 7 7 7 7 8 8 8 8 8 8 8 8 8 8 8 8 8 8 8 8 8 8 8 7
1 3 3 4 6 7 7 7 7 7 8 7 8 7 7 7 7 7 7 7 7 7 7 7 7 7 7 7 7 7 7 8 8 7 8 8 8 8 8 8 8 8 8 8 8 7 7 7 6
2 2 3 4 5 6 6 6 6 7 7 7 7 6 6 7 6 7 7 7 7 7 7 7 7 7 7 7 7 7 7 8 7 8 8 8 8 8 8 8 8 7 7 7 7 7 6 6 5
1 1 3 4 5 5 6 6 6 7 7 7 6 6 6 6 6 7 7 7 7 6 6 6 6 7 7 7 7 7 7 7 7 8 7 7 7 7 7 7 7 7 6 6 6 5 5 5 4
1 1 2 4 4 5 5 6 6 7 7 7 6 6 6 6 6 7 7 7 6 6 6 6 6 7 7 7 7 7 7 7 7 7 7 7 7 7 7 6 6 6 6 6 5 5 5 5 4
1 2 2 4 4 5 5 6 7 7 7 6 5 5 5 6 6 6 6 6 6 6 6 6 6 7 7 7 7 7 7 7 7 7 7 7 6 6 5 5 5 5 5 5 5 5 5 5 4
2 2 3 3 4 4 5 6 5 6 6 6 5 5 5 6 6 6 6 6 6 6 6 6 6 6 7 7 7 7 7 7 6 6 6 6 5 5 5 5 4 4 4 4 4 4 4 4 4
2 3 3 4 4 4 5 4 4 5 5 5 5 5 5 5 6 6 6 5 5 6 6 6 6 7 7 7 7 7 6 6 6 6 6 5 5 5 4 4 4 4 4 4 4 4 4 4 4
2 3 3 4 4 4 4 3 4 4 5 5 4 5 5 5 6 6 6 5 5 5 6 6 6 6 6 6 6 6 6 6 6 6 5 5 4 4 4 4 3 3 4 4 4 3 4 3 3
3 3 3 4 3 3 3 4 5 4 4 5 5 4 5 5 6 6 6 5 5 5 6 6 6 6 6 6 6 6 5 5 5 5 5 5 5 4 4 3 3 3 3 3 3 3 3 3 3
3 3 3 3 3 -0 3 3 5 6 6 6 5 5 5 5 6 5 5 5 5 5 6 6 6 6 6 5 5 5 5 5 5 5 5 4 4 4 4 4 3 3 3 3 3 3 3 3 3
2 3 1 -2 -3 -3 3 3 6 5 7 6 6 5 5 5 5 5 5 5 5 5 5 5 5 5 5 5 5 5 5 5 5 5 4 4 4 4 4 3 3 3 2 3 2 3 3 3 3
2 3 3 -3 -6 -4 1 3 5 6 5 5 5 4 5 5 5 5 4 4 4 5 5 5 5 4 4 4 4 4 5 5 4 4 4 3 3 3 3 3 3 3 2 2 2 2 2 2 2
2 2 2 2 0 -0 3 4 5 6 7 6 6 6 5 5 5 5 4 4 4 4 4 4 4 4 4 4 4 4 4 4 3 3 3 3 3 3 3 3 2 2 2 2 2 2 2 2 2
2 2 2 2 -3 -2 0 3 7 8 7 7 6 6 5 5 5 4 4 4 4 4 3 3 3 3 3 4 4 4 3 3 3 3 3 3 3 3 2 2 2 2 2 2 2 2 2 2 2
2 1 2 2 2 -4 -4 3 6 7 7 6 6 5 5 4 4 4 4 3 3 3 3 3 3 3 3 3 3 3 2 2 2 2 2 2 2 2 2 2 2 2 2 2 2 1 2 2 2
2 2 2 2 2 1 1 5 6 6 6 6 5 4 4 3 3 3 3 3 3 3 2 2 2 2 2 2 2 1 1 1 1 2 2 2 2 2 2 2 1 1 1 1 1 1 1 2 2
Height
3162 3164 3167 3171 3178 3175 3174 3176 3176 3177 3178 3178 3179 3181 3181 3182 3183 3188 3185 3186 3188 3189 3191 3191 3193 3194 3195 3195 3195 3194 3194 3194 3193 3192 3191 3190 3189 3188 3187 3185 3184 3183 3181 3180 3179 3178 3177 3175 3174
3157 3161 3165 3167 3170 3170 3172 3174 3174 3176 3177 3178 3179 3180 3181 3182 3184 3185 3185 3185 3187 3189 3191 3192 3193 3195 3195 3195 3195 3194 3194 3193 3192 3192 3191 3190 3189 3188 3187 3185 3184 3182 3181 3179 3178 3177 3176 3175 3173
3153 3158 3162 3163 3164 3165 3169 3172 3174 3174 3176 3177 3178 3179 3181 3182 3184 3185 3185 3185 3187 3190 3191 3193 3194 3194 3195 3195 3195 3194 3193 3193 3192 3191 3190 3189 3188 3187 3186 3184 3183 3182 3180 3179 3178 3176 3175 3173 3172
3148 3154 3158 3156 3158 3164 3167 3169 3172 3172 3174 3176 3177 3179 3181 3182 3184 3185 3184 3185 3187 3189 3192 3193 3193 3194 3194 3194 3194 3194 3193 3192 3192 3191 3189 3188 3187 3186 3184 3183 3182 3180 3179 3178 3177 3175 3173 3172 3170
3142 3148 3151 3151 3155 3160 3164 3168 3171 3172 3173 3174 3176 3177 3180 3182 3183 3185 3186 3186 3187 3188 3190 3192 3193 3193 3194 3194 3194 3194 3193 3192 3191 3189 3188 3187 3186 3184 3183 3182 3180 3179 3178 3176 3175 3173 3171 3169 3167
3135 3141 3143 3145 3151 3157 3162 3165 3168 3170 3172 3174 3175 3177 3179 3181 3182 3185 3186 3186 3187 3188 3189 3191 3192 3193 3193 3193 3193 3193 3192 3191 3190 3189 3187 3186 3184 3183 3181 3180 3179 3177 3175 3174 3173 3171 3169 3166 3164
3127 3132 3137 3144 3150 3154 3159 3162 3164 3167 3170 3173 3175 3176 3179 3180 3181 3183 3185 3186 3187 3188 3188 3190 3191 3192 3193 3192 3192 3192 3192 3191 3189 3188 3186 3185 3183 3181 3180 3178 3176 3174 3173 3171 3169 3167 3165 3162 3160
3125 3129 3134 3141 3144 3152 3157 3159 3162 3165 3168 3170 3172 3174 3177 3180 3181 3183 3184 3186 3186 3187 3188 3189 3190 3190 3191 3192 3192 3192 3191 3190 3188 3186 3184 3183 3181 3180 3178 3176 3174 3172 3170 3168 3166 3163 3161 3158 3155
3119 3124 3127 3135 3141 3150 3155 3155 3158 3160 3166 3169 3172 3175 3177 3178 3180 3181 3182 3185 3186 3187 3188 3189 3189 3190 3190 3190 3191 3191 3190 3188 3187 3185 3183 3181 3179 3178 3176 3174 3172 3169 3167 3164 3161 3158 3155 3152 3149
3115 3118 3124 3134 3141 3147 3152 3153 3155 3157 3162 3166 3170 3172 3174 3176 3178 3180 3181 3183 3185 3187 3188 3188 3189 3189 3189 3189 3190 3189 3188 3187 3185 3183 3181 3179 3177 3175 3173 3171 3168 3166 3163 3160 3157 3153 3150 3147 3144
3114 3116 3125 3133 3139 3144 3149 3152 3153 3155 3159 3163 3166 3169 3172 3174 3176 3178 3180 3181 3183 3185 3187 3187 3188 3188 3188 3188 3188 3188 3187 3186 3184 3181 3179 3176 3174 3173 3170 3168 3165 3162 3159 3155 3152 3149 3145 3142 3139
3114 3117 3124 3130 3135 3141 3145 3148 3151 3154 3158 3161 3163 3166 3169 3171 3174 3176 3177 3179 3181 3183 3185 3185 3186 3187 3187 3187 3186 3186 3185 3183 3181 3179 3176 3175 3171 3170 3167 3164 3161 3158 3155 3151 3147 3144 3140 3137 3133
3112 3118 3123 3127 3130 3138 3142 3144 3148 3151 3155 3158 3160 3163 3166 3169 3171 3173 3174 3176 3178 3180 3182 3183 3184 3185 3185 3185 3184 3184 3183 3181 3179 3177 3174 3172 3170 3167 3164 3161 3157 3153 3149 3145 3142 3138 3134 3131 3127
3111 3119 3121 3123 3128 3133 3137 3142 3146 3149 3152 3154 3157 3161 3163 3165 3168 3170 3172 3174 3176 3178 3179 3180 3182 3183 3183 3183 3182 3181 3180 3177 3176 3173 3170 3169 3166 3163 3160 3157 3152 3148 3144 3140 3136 3132 3128 3125 3121
3111 3117 3119 3121 3124 3128 3135 3140 3142 3147 3150 3152 3155 3158 3160 3162 3165 3168 3170 3172 3174 3175 3176 3178 3180 3180 3180 3180 3179 3178 3176 3175 3172 3170 3167 3165 3162 3159 3156 3152 3148 3143 3139 3135 3130 3127 3122 3119 3116
3109 3114 3116 3120 3122 3125 3131 3135 3140 3144 3147 3149 3152 3155 3157 3160 3163 3165 3167 3170 3171 3172 3173 3175 3177 3177 3178 3177 3176 3176 3173 3171 3170 3167 3164 3161 3158 3155 3151 3147 3143 3139 3134 3130 3126 3123 3118 3115 3111
3107 3109 3113 3117 3119 3123 3129 3133 3137 3141 3144 3147 3149 3152 3155 3157 3160 3163 3164 3166 3168 3169 3171 3172 3174 3174 3175 3174 3173 3172 3170 3168 3165 3162 3160 3157 3154 3150 3146 3142 3138 3134 3129 3125 3122 3118 3114 3112 3107
3101 3107 3112 3115 3119 3123 3127 3131 3135 3138 3142 3145 3147 3150 3152 3155 3157 3159 3161 3163 3164 3166 3168 3169 3171 3171 3171 3171 3169 3169 3167 3164 3161 3159 3156 3153 3150 3146 3142 3138 3134 3129 3125 3121 3118 3114 3110 3108 3104
3102 3108 3112 3116 3119 3124 3128 3131 3134 3136 3139 3142 3145 3147 3150 3153 3154 3156 3157 3159 3162 3164 3165 3167 3168 3168 3168 3167 3165 3165 3163 3160 3158 3156 3152 3149 3145 3141 3138 3134 3130 3126 3122 3119 3115 3111 3108 3105 3103
3102 3107 3112 3116 3120 3123 3126 3129 3131 3133 3136 3139 3143 3145 3147 3149 3152 3153 3155 3156 3159 3161 3162 3163 3164 3165 3163 3162 3161 3160 3158 3155 3153 3151 3148 3145 3142 3138 3134 3131 3127 3123 3119 3116 3112 3108 3106 3104 3102
3102 3106 3109 3114 3117 3121 3124 3127 3128 3130 3132 3135 3138 3141 3143 3146 3148 3150 3151 3153 3155 3157 3158 3159 3160 3160 3159 3158 3156 3155 3153 3150 3149 3146 3143 3140 3137 3134 3130 3126 3123 3120 3117 3113 3110 3107 3105 3102 3099
3101 3105 3110 3114 3117 3119 3121 3123 3124 3126 3129 3130 3132 3136 3139 3142 3144 3146 3148 3150 3151 3152 3153 3154 3155 3154 3154 3153 3151 3149 3147 3145 3143 3141 3138 3135 3132 3129 3126 3122 3120 3118 3114 3111 3108 3105 3102 3100 3098
3101 3105 3109 3113 3116 3118 3120 3124 3119 3123 3123 3125 3129 3131 3134 3137 3139 3141 3144 3145 3146 3147 3148 3149 3149 3149 3148 3147 3145 3144 3142 3140 3138 3135 3133 3130 3128 3124 3122 3119 3116 3114 3111 3108 3106 3103 3100 3098 3097
3101 3105 3109 3113 3117 3119 3118 3120 3114 3113 3116 3122 3125 3128 3130 3132 3134 3136 3138 3140 3141 3143 3143 3144 3144 3143 3142 3141 3140 3139 3137 3135 3133 3129 3127 3124 3122 3119 3116 3115 3112 3110 3108 3106 3103 3100 3097 3096 3094
3101 3105 3111 3120 3121 3117 3115 3119 3110 3111 3114 3118 3121 3124 3126 3128 3130 3131 3133 3135 3136 3137 3138 3138 3138 3138 3138 3137 3135 3134 3132 3130 3127 3124 3122 3120 3117 3114 3112 3110 3108 3106 3104 3102 3099 3098 3095 3093 3091
3103 3104 3105 3117 3120 3112 3113 3109 3106 3109 3111 3114 3117 3119 3121 3124 3125 3127 3129 3130 3131 3132 3132 3133 3134 3134 3133 3132 3131 3129 3126 3124 3121 3119 3117 3114 3112 3110 3108 3105 3104 3102 3099 3097 3094 3092 3092 3090 3088
3104 3104 3105 3105 3108 3109 3107 3105 3104 3104 3106 3109 3111 3112 3115 3118 3121 3123 3125 3125 3126 3127 3128 3129 3129 3129 3128 3127 3125 3123 3120 3118 3116 3113 3111 3109 3107 3105 3102 3100 3098 3096 3094 3092 3091 3088 3086 3086 3084
3102 3105 3106 3105 3111 3111 3102 3100 3097 3098 3101 3103 3105 3108 3110 3113 3115 3117 3119 3121 3122 3123 3123 3124 3124 3123 3123 3121 3119 3117 3114 3112 3110 3108 3106 3104 3101 3099 3097 3094 3092 3090 3088 3087 3086 3084 3081 3080 3079
3102 3103 3104 3104 3103 3102 3105 3095 3093 3095 3097 3099 3101 3104 3106 3109 3110 3112 3114 3116 3117 3118 3119 3119 3119 3118 3117 3115 3113 3111 3109 3106 3105 3103 3101 3099 3097 3093 3091 3089 3087 3084 3082 3081 3080 3078 3076 3074 3073
3100 3101 3102 3102 3100 3099 3098 3092 3091 3092 3093 3095 3097 3099 3102 3105 3106 3108 3110 3112 3113 3114 3114 3114 3113 3113 3111 3109 3107 3105 3103 3101 3099 3097 3095 3093 3091 3088 3086 3083 3081 3079 3076 3074 3073 3071 3070 3068 3066
Wind_Speed
27 22 18 16 11 9 14 10 11 19 21 16 13 10 7 5 7 2 8 10 9 10 8 8 8 7 6 5 4 4 3 2 3 4 5 6 7 8 9 9 10 10 10 11 11 12 12 12 12
30 26 19 18 13 15 16 10 16 17 16 14 13 10 9 7 7 4 4 11 12 10 8 7 6 5 3 2 1 2 2 3 4 6 6 7 9 9 9 10 10 10 10 10 10 11 11 12 13
32 29 23 17 21 20 13 16 15 16 15 14 15 14 9 9 8 5 7 9 12 10 8 7 6 4 2 1 1 2 2 4 6 7 8 9 9 9 9 9 9 10 10 9 9 10 10 11 12
35 31 27 22 25 24 9 13 19 18 19 17 14 14 11 8 8 7 8 8 13 11 8 6 5 4 2 1 2 3 4 6 7 8 8 9 9 9 9 8 8 8 9 10 10 11 11 12 13
36 35 31 29 30 27 16 9 12 15 19 17 17 15 11 12 11 8 6 6 11 11 10 7 5 5 4 3 3 3 4 6 8 9 9 10 9 9 9 10 10 10 10 11 12 13 14 15 15
36 39 29 33 36 28 24 15 14 16 17 13 17 15 13 13 12 10 6 7 9 13 11 9 6 5 5 3 2 3 5 7 9 10 10 10 10 10 11 11 11 11 12 13 14 15 16 18 19
38 44 32 39 37 28 19 18 17 18 16 14 16 15 13 13 12 10 7 6 6 9 11 9 8 5 4 3 2 3 6 9 10 11 11 11 11 11 12 11 12 13 15 16 16 18 19 20 21
37 40 35 34 43 32 20 19 19 19 18 16 18 16 13 10 10 11 9 8 7 7 8 9 7 4 3 3 2 4 7 9 11 12 12 12 12 12 12 13 14 15 17 18 19 20 22 24 26
39 31 35 43 40 34 25 21 21 21 18 17 15 13 12 11 11 11 13 13 9 7 6 6 5 4 4 3 4 5 8 10 12 13 14 13 13 13 13 14 15 17 18 21 22 24 25 27 28
39 36 38 42 41 36 30 26 25 24 19 16 16 18 16 12 12 13 13 15 13 9 6 6 6 6 4 4 5 7 9 11 13 14 15 14 14 15 15 17 17 18 20 22 24 25 27 28 28
40 36 33 36 32 28 32 24 27 25 22 20 17 16 16 13 12 13 15 17 16 13 9 8 9 7 7 6 6 9 10 12 13 14 15 16 16 17 18 19 19 20 22 23 25 27 28 28 28
38 36 30 37 33 27 28 29 29 27 20 19 18 19 17 15 14 15 16 18 17 15 12 10 11 10 9 8 7 10 11 13 14 14 15 17 17 19 20 21 22 23 25 26 27 28 29 29 30
36 30 27 36 39 30 21 27 29 27 21 18 21 22 18 18 17 15 16 18 19 17 15 13 13 12 11 10 9 11 13 14 16 15 15 17 19 20 22 23 25 26 27 28 28 29 28 29 29
27 31 28 17 38 33 26 31 30 26 20 20 21 20 18 17 17 17 16 17 17 17 16 15 15 14 13 11 10 13 14 15 17 17 18 19 21 22 24 26 26 28 29 30 30 30 30 29 28
23 24 23 17 28 31 32 32 29 22 20 20 20 17 18 16 18 17 16 16 17 19 18 17 17 15 14 12 12 14 15 17 18 19 20 22 23 26 26 27 28 29 29 30 31 31 31 30 28
27 21 18 23 32 36 35 32 28 23 20 20 20 18 16 18 17 17 18 18 19 18 17 18 18 16 14 14 13 15 17 18 19 20 21 24 26 27 28 28 28 28 29 29 29 27 27 26 23
28 19 22 25 31 35 34 28 25 21 21 21 21 19 18 18 17 16 17 19 18 18 17 19 18 15 14 14 15 17 18 19 20 22 24 26 27 28 28 27 27 27 26 26 25 24 23 20 18
33 22 24 24 28 27 29 23 23 21 22 19 18 19 19 16 14 13 15 16 16 16 17 17 17 16 15 16 15 19 19 20 21 23 25 26 27 27 27 26 26 25 25 24 23 22 22 18 15
23 21 27 21 24 23 22 20 20 23 23 22 20 20 19 16 15 13 13 14 14 15 16 17 17 16 17 17 17 20 20 20 22 24 25 26 27 26 26 25 25 23 22 22 21 19 18 16 14
22 19 20 20 21 20 20 17 19 20 22 22 20 21 20 19 16 13 14 17 17 16 15 16 17 17 17 19 20 20 20 22 24 25 25 25 25 24 25 24 22 21 21 21 20 18 16 15 12
19 24 25 24 25 20 20 17 19 21 20 20 22 21 22 18 16 14 14 16 16 16 16 16 17 18 19 20 20 20 21 24 24 25 25 25 23 24 25 24 22 20 20 18 17 16 14 14 13
14 17 22 22 25 12 24 8 23 23 23 23 23 24 23 21 20 17 14 14 15 16 16 17 19 20 20 20 20 21 23 24 25 25 24 24 24 24 24 23 22 19 19 18 16 14 13 13 14
12 20 21 25 27 15 26 6 17 26 28 26 23 25 24 23 22 22 18 17 17 17 18 19 20 20 20 19 21 22 24 25 25 27 26 25 24 24 23 21 21 20 18 17 16 14 13 13 13
19 21 21 24 18 6 19 17 12 31 37 29 26 26 25 23 22 23 20 19 20 20 20 20 20 20 20 21 22 23 24 25 27 28 27 25 24 23 22 19 20 21 19 19 17 16 13 12 13
22 24 7 2 1 5 15 19 23 12 18 28 28 26 27 27 25 23 22 21 21 21 20 20 20 20 20 22 23 23 25 27 28 28 25 24 23 23 22 21 20 20 20 19 18 18 17 14 14
27 12 7 6 4 3 9 11 18 30 15 19 22 26 27 28 27 25 25 24 23 21 21 20 20 20 20 21 22 24 26 27 26 25 24 23 23 24 24 23 21 21 21 20 18 17 19 17 17
20 6 5 5 4 2 7 12 10 24 26 25 21 22 27 26 26 24 24 24 22 21 19 19 19 20 20 21 23 25 27 26 24 23 23 23 24 24 24 24 23 23 22 23 22 19 20 19 20
15 14 5 4 3 3 5 9 14 15 23 25 28 24 22 23 23 23 24 22 20 19 18 19 20 20 21 23 25 27 26 26 25 24 24 25 25 25 25 25 25 24 24 25 24 23 22 21 23
12 15 8 5 4 4 2 7 13 23 16 14 21 22 22 20 20 22 21 20 19 18 18 19 20 21 23 25 26 26 25 24 24 23 23 23 24 24 25 25 25 25 25 26 26 25 25 24 24
12 18 17 5 4 5 2 4 7 9 15 19 17 21 21 20 20 20 19 18 18 18 20 20 21 22 24 25 24 23 22 22 23 23 24 24 25 26 26 26 26 26 26 27 26 27 27 27 25
Wind_Direction
216 214 211 206 202 212 211 178 166 162 152 156 155 168 200 143 150 167 161 167 154 142 146 134 134 132 130 118 99 83 63 32 12 2 354 356 355 353 349 346 347 344 345 345 344 343 342 338 335
217 214 209 205 206 201 207 173 179 182 187 188 195 200 195 164 176 115 142 177 159 157 156 149 146 145 136 117 74 20 4 6 5 357 359 356 349 346 344 341 341 341 341 341 343 343 342 340 338
217 212 207 203 208 204 208 196 192 195 200 204 215 209 209 191 166 122 102 159 160 168 168 168 166 164 167 177 305 319 345 353 354 354 350 348 349 347 344 343 340 339 339 338 336 336 336 335 331
213 210 209 209 208 203 189 201 198 215 202 206 210 202 197 196 166 123 82 164 168 170 182 186 182 183 190 250 294 324 345 354 351 347 346 343 340 339 339 340 341 338 332 330 330 331 330 326 322
205 209 207 212 208 203 167 160 193 210 208 206 202 203 197 180 172 153 106 124 162 173 184 195 196 209 210 259 291 328 352 349 347 344 340 340 338 338 334 329 331 331 330 329 327 325 323 318 314
196 204 206 210 209 203 204 201 205 211 200 212 214 208 202 181 182 174 150 123 165 179 186 194 206 214 235 254 286 334 350 345 343 341 339 338 334 334 334 330 330 328 324 323 321 318 315 312 310
195 200 207 211 212 201 193 194 206 219 206 212 215 211 212 197 195 184 182 149 148 185 187 192 197 225 247 268 302 336 341 343 342 340 341 337 334 331 330 326 325 323 319 320 317 313 310 308 305
190 199 204 211 213 202 176 187 198 211 215 209 207 216 225 216 203 201 198 189 178 181 189 190 201 221 250 275 291 323 335 340 337 339 336 334 332 331 326 321 318 317 316 315 312 308 306 303 300
188 192 200 207 212 203 188 197 196 213 210 216 222 223 224 210 211 212 206 208 208 201 200 211 225 242 257 257 290 316 331 333 338 336 334 333 329 325 321 316 316 316 314 310 308 306 304 301 300
190 196 196 208 215 211 203 217 218 213 221 235 250 234 218 216 216 214 212 214 217 221 223 242 255 267 272 253 292 312 328 331 333 334 330 328 324 323 319 314 315 312 308 306 304 302 301 301 300
196 199 191 199 210 214 210 212 221 230 235 254 270 223 210 221 227 219 217 217 218 222 231 249 265 273 275 269 286 304 323 327 326 331 324 324 324 318 317 313 313 310 308 307 306 305 303 303 302
207 199 188 190 199 197 198 212 214 225 234 243 240 210 216 231 234 225 220 220 225 224 235 249 265 275 272 264 282 302 317 320 322 323 323 317 321 316 314 314 313 312 310 310 308 307 305 304 303
211 197 194 198 199 201 202 210 214 212 214 226 232 224 230 231 227 224 220 219 223 228 238 251 262 268 272 270 287 304 310 317 316 318 319 319 316 315 316 315 314 314 313 312 309 307 306 305 304
207 196 196 192 202 207 197 201 200 209 211 226 227 227 224 223 222 223 223 224 227 234 241 252 259 263 269 272 286 304 306 316 313 318 321 319 318 318 317 316 316 315 313 311 310 308 307 305 305
185 195 192 180 192 193 197 197 195 209 221 227 224 219 217 221 220 221 225 228 231 238 245 251 255 258 265 274 292 300 308 311 314 317 320 319 321 320 318 318 318 315 313 313 312 312 309 308 310
187 195 188 179 171 184 187 185 192 201 222 226 228 227 223 225 222 225 233 235 238 244 245 245 248 256 264 276 294 299 307 312 311 316 321 320 321 319 321 320 319 318 317 317 315 313 312 314 313
185 191 192 186 179 181 186 189 195 200 218 224 225 228 229 229 228 229 235 237 239 239 238 240 248 255 264 277 291 299 308 308 314 321 319 318 320 320 320 321 321 322 321 321 321 319 318 319 317
186 196 191 187 185 187 188 198 200 211 224 229 226 221 225 229 234 237 237 235 234 234 237 245 253 259 268 280 292 301 306 308 315 313 315 317 318 318 321 323 324 327 327 325 325 324 323 327 320
185 193 192 188 186 182 194 207 218 222 223 222 221 221 224 228 236 242 242 237 236 240 245 251 257 264 274 286 296 301 302 306 308 310 313 315 317 320 322 324 326 327 327 325 324 325 325 327 321
185 189 184 188 188 189 189 194 203 211 219 223 222 224 227 231 237 246 239 234 234 239 247 255 262 270 280 287 295 297 301 304 308 311 313 314 315 316 317 321 325 327 325 323 325 327 325 318 321
172 191 191 188 183 190 193 193 194 205 215 222 223 222 227 232 237 243 244 239 242 246 251 257 264 273 280 288 291 295 298 303 307 309 311 310 311 313 315 318 322 320 318 320 320 320 319 321 323
179 180 197 189 188 183 188 211 205 206 214 222 230 233 236 239 244 246 245 235 236 242 252 259 267 274 280 283 287 292 297 301 303 304 306 305 307 309 309 310 313 312 313 316 313 311 316 323 320
185 175 183 189 182 187 195 222 222 211 215 218 226 234 239 245 249 250 246 240 239 245 253 260 265 270 274 278 283 289 294 297 300 301 304 304 307 307 303 302 305 306 308 309 306 305 312 314 319
150 165 181 179 186 191 194 213 227 218 224 222 222 226 232 240 249 251 247 248 243 246 252 259 264 267 272 276 282 290 293 297 300 302 303 303 304 306 305 299 300 300 301 301 301 298 299 303 308
145 144 111 94 224 208 197 213 226 224 226 229 229 237 239 239 246 250 249 247 247 249 252 256 260 265 270 278 288 293 296 300 301 301 298 296 300 305 306 300 295 291 292 295 297 296 293 291 292
166 175 167 170 183 223 187 226 227 232 223 213 218 234 238 236 239 241 240 241 242 245 248 253 259 266 278 285 290 295 297 298 298 296 294 296 300 302 302 301 297 290 287 290 288 288 288 286 284
193 213 176 124 142 158 204 240 235 229 222 225 223 232 227 229 233 235 234 234 237 242 247 254 262 273 281 287 292 296 297 296 295 295 296 298 300 301 301 300 298 296 292 290 293 290 285 284 282
205 212 210 212 129 240 244 243 227 227 229 226 231 230 229 230 232 231 231 234 238 243 248 259 270 279 287 293 296 297 296 295 295 295 295 297 298 299 300 300 299 296 294 289 289 290 286 282 280
219 212 228 238 230 167 176 244 228 235 244 237 237 232 234 235 234 232 233 236 238 245 258 270 277 283 290 297 299 298 297 296 296 298 299 300 300 300 301 299 300 297 293 288 287 284 283 283 279
238 225 227 233 219 225 235 275 223 234 235 231 228 235 238 232 230 232 234 238 247 262 268 271 280 292 301 301 298 294 292 293 295 297 298 299 299 298 297 297 295 294 295 291 285 281 280 279 278